FW4351 Duxbury MA US current weather conditions

sailwx.info

Wind from 287 at 1 knots gusting 5

Air temperature -0.0° C
Dewpoint -5.0° C

Last reported at 2019-Dec-06 02:10 UTC.
Time now 2019-Dec-06 03:14 UTC

Location: N 42°01' W 070°43'.
View on Google Maps.

See reports from other nearby stations

  
Tides and Currents Weather Stations Pressure Air Temp Water Temp Dewpoint Dewpoint Depression Visibility Wind Speed Wind Dir Waves Ship Positions
date/time (UTC)wind fromknots sea level pressurealtimeterstation pressurevisibilityair tempwater tempwave heightnotes
2019-Dec-06 02:10 287 1 gusting 5 -0.0
2019-Dec-06 02:00 275 0 gusting 6 -0.0
2019-Dec-06 01:50 327 1 gusting 4 -0.0
2019-Dec-06 01:40 311 1 gusting 7 -0.0
2019-Dec-06 01:30 290 1 gusting 6 -0.0
2019-Dec-06 01:20 299 1 gusting 6 -0.0
2019-Dec-06 01:10 284 1 gusting 4 0.6
2019-Dec-06 01:00 286 2 gusting 6 0.6
2019-Dec-06 00:50 261 1 gusting 7 0.6
2019-Dec-06 00:40 262 1 gusting 5 1.1
2019-Dec-06 00:30 277 1 gusting 4 1.1
2019-Dec-06 00:20 288 1 gusting 6 1.1
2019-Dec-06 00:10 287 1 gusting 6 1.7
2019-Dec-06 00:00 281 1 gusting 8 1.7
2019-Dec-05 23:50 286 1 gusting 6 1.7
2019-Dec-05 23:40 276 1 gusting 6 1.7
2019-Dec-05 23:30 301 0 gusting 2 1.7
2019-Dec-05 23:20 294 1 gusting 5 2.2
2019-Dec-05 23:10 293 0 gusting 2 2.2
2019-Dec-05 23:00 293 1 gusting 5 2.2
2019-Dec-05 22:50 277 1 gusting 6 2.2
2019-Dec-05 22:40 270 0 gusting 3 2.2
2019-Dec-05 22:30 309 1 gusting 6 2.2
2019-Dec-05 22:20 285 0 gusting 3 2.2
2019-Dec-05 22:10 298 0 gusting 3 2.2
2019-Dec-05 22:00 287 1 gusting 7 2.8
2019-Dec-05 21:50 265 1 gusting 4 2.8
2019-Dec-05 21:40 294 0 gusting 3 2.8
2019-Dec-05 21:30 313 0 gusting 5 2.8
2019-Dec-05 21:20 286 1 gusting 6 2.8
2019-Dec-05 21:10 271 1 gusting 3 2.8
2019-Dec-05 21:00 302 0 gusting 2 2.8
2019-Dec-05 20:50 283 0 gusting 1 3.3
2019-Dec-05 20:40 290 0 gusting 6 3.3
2019-Dec-05 20:30 320 0 gusting 4 3.3
2019-Dec-05 20:20 306 0 gusting 4 3.3
2019-Dec-05 20:10 267 0 gusting 4 3.9
2019-Dec-05 20:00 347 0 gusting 3 3.9
2019-Dec-05 19:50 299 0 gusting 5 3.9
2019-Dec-05 19:40 313 1 gusting 6 3.9
2019-Dec-05 19:30 292 1 gusting 4 4.4
2019-Dec-05 19:20 282 1 gusting 4 4.4
2019-Dec-05 19:10 304 1 gusting 6 5.0
2019-Dec-05 19:00 290 1 gusting 6 5.6
2019-Dec-05 18:50 273 1 gusting 7 6.1
2019-Dec-05 18:40 270 2 gusting 6 6.1
2019-Dec-05 18:30 309 1 gusting 5 6.1
2019-Dec-05 18:20 293 1 gusting 7 6.1
2019-Dec-05 18:10 324 1 gusting 6 6.1
2019-Dec-05 18:00 294 1 gusting 5 5.6
2019-Dec-05 17:50 297 1 gusting 6 5.6
2019-Dec-05 17:40 284 1 gusting 6 5.6
2019-Dec-05 17:30 341 1 gusting 5 5.6
2019-Dec-05 17:20 307 1 gusting 6 5.6
2019-Dec-05 17:10 290 1 gusting 7 5.6
2019-Dec-05 17:00 296 1 gusting 5 5.6
2019-Dec-05 16:50 308 1 gusting 5 5.0
2019-Dec-05 16:40 309 1 gusting 6 5.0
2019-Dec-05 16:30 303 1 gusting 6 5.0
2019-Dec-05 16:20 276 1 gusting 5 5.0
2019-Dec-05 16:10 294 0 gusting 6 5.0
2019-Dec-05 16:00 276 0 gusting 3 5.0
2019-Dec-05 15:50 266 0 gusting 5 4.4
2019-Dec-05 15:40 279 0 gusting 2 3.9
2019-Dec-05 15:30 292 0 gusting 2 3.3
2019-Dec-05 15:20 261 0 gusting 2 3.3
2019-Dec-05 15:10 284 0 gusting 3 2.8
2019-Dec-05 15:00 245 0 gusting 2 1.7
2019-Dec-05 14:50 270 0 gusting 2 1.1
2019-Dec-05 14:40 258 0 gusting 2 0.6
2019-Dec-05 14:30 292 0 gusting 4 0.6
2019-Dec-05 14:20 315 0 gusting 3 0.6
2019-Dec-05 14:10 292 0 gusting 2 -0.0
2019-Dec-05 14:00 281 0 gusting 2 -0.0
2019-Dec-05 13:50 275 0 gusting 1 -0.0
2019-Dec-05 13:40 251 0 gusting 1 -0.0
2019-Dec-05 13:30 250 0 gusting 2 -0.6
2019-Dec-05 13:20 250 0 gusting 1 -1.1
2019-Dec-05 13:10 250 0 gusting 1 -1.1
2019-Dec-05 13:00 250 0 gusting 1 -1.7
2019-Dec-05 12:50 250 0 gusting 1 -1.7
2019-Dec-05 12:40 250 0 gusting 0 -1.7
2019-Dec-05 12:30 250 0 gusting 1 -1.7
2019-Dec-05 12:20 250 0 gusting 1 -2.2
2019-Dec-05 12:11 250 0 gusting 1 -2.2
2019-Dec-05 12:00 250 0 gusting 0 -1.7
2019-Dec-05 11:50 250 0 gusting 1 -1.7
2019-Dec-05 11:40 250 0 gusting 1 -1.7
2019-Dec-05 11:30 250 0 gusting 1 -1.7
2019-Dec-05 11:20 250 0 gusting 0 -1.7
2019-Dec-05 11:10 250 0 gusting 0 -1.7
2019-Dec-05 11:00 250 0 gusting 0 -1.7
2019-Dec-05 10:50 250 0 gusting 1 -1.7
2019-Dec-05 10:40 250 0 gusting 1 -1.7
2019-Dec-05 10:30 250 0 gusting 0 -1.1
2019-Dec-05 10:20 249 0 gusting 1 -1.1
2019-Dec-05 10:10 249 0 gusting 1 -1.1
2019-Dec-05 10:00 249 0 gusting 1 -1.1
2019-Dec-05 09:50 249 0 gusting 1 -1.1
2019-Dec-05 09:40 249 0 gusting 1 -1.1
2019-Dec-05 09:30 249 0 gusting 1 -1.1
2019-Dec-05 09:20 252 0 gusting 1 -1.1
2019-Dec-05 09:10 252 0 gusting 1 -1.1
2019-Dec-05 09:00 253 0 gusting 1 -1.1
2019-Dec-05 08:50 252 0 gusting 0 -1.1
2019-Dec-05 08:40 253 0 gusting 0 -1.1
2019-Dec-05 08:30 253 0 gusting 1 -1.1
2019-Dec-05 08:20 252 -1.1
2019-Dec-05 08:10 252 -1.1
2019-Dec-05 08:00 253 0 gusting 0 -1.1
2019-Dec-05 07:50 252 -1.1
2019-Dec-05 07:40 252 -1.1
2019-Dec-05 07:30 252 -1.1
2019-Dec-05 07:20 252 -1.1
2019-Dec-05 07:10 252 -1.1
2019-Dec-05 07:00 252 -0.6
2019-Dec-05 06:50 252 -0.6
2019-Dec-05 06:40 252 -0.6
2019-Dec-05 06:30 253 -0.6
2019-Dec-05 06:20 252 -0.6
2019-Dec-05 06:10 252 -0.6
2019-Dec-05 06:00 252 -0.6
2019-Dec-05 05:50 252 -0.6
2019-Dec-05 05:40 252 -0.0
2019-Dec-05 05:30 253 -0.0
2019-Dec-05 05:20 252 -0.0
2019-Dec-05 05:10 253 0 gusting 1 -0.0
2019-Dec-05 05:00 257 0 gusting 0 -0.0
2019-Dec-05 04:50 257 0 gusting 1 -0.0
2019-Dec-05 04:40 257 0 gusting 1 -0.0
2019-Dec-05 04:30 257 0 gusting 1 -0.0
2019-Dec-05 04:20 250 0 gusting 1 -0.0
2019-Dec-05 04:10 246 0 gusting 0 -0.0
2019-Dec-05 04:00 246 -0.0
2019-Dec-05 03:50 246 -0.0
2019-Dec-05 03:40 246 -0.0
2019-Dec-05 03:30 246 0 gusting 1 -0.0
2019-Dec-05 03:20 246 0 gusting 2 -0.0
2019-Dec-05 03:10 246 0 gusting 1 -0.0
2019-Dec-05 03:00 246 -0.0
2019-Dec-05 02:50 246 -0.0
2019-Dec-05 02:40 246 0 gusting 0 -0.0
2019-Dec-05 02:30 246 -0.0
2019-Dec-05 02:20 248 -0.0
2019-Dec-05 02:10 246 0 gusting 2 -0.0
2019-Dec-05 02:00 243 -0.0
2019-Dec-05 01:50 242 0 gusting 1 -0.0
2019-Dec-05 01:40 242 -0.0
2019-Dec-05 01:30 242 -0.0
2019-Dec-05 01:20 242 -0.0
2019-Dec-05 01:10 243 -0.0
2019-Dec-05 01:00 242 -0.0
2019-Dec-05 00:50 -0.0
2019-Dec-05 00:40 -0.0
2019-Dec-05 00:30 -0.0
2019-Dec-05 00:20 -0.0
2019-Dec-05 00:10 243 -0.0
2019-Dec-05 00:00 -0.0
2019-Dec-04 23:50 -0.0
2019-Dec-04 23:40 -0.0
2019-Dec-04 23:30 242 -0.0
2019-Dec-04 23:20 242 -0.0
2019-Dec-04 23:10 -0.0
2019-Dec-04 23:00 242 -0.0
2019-Dec-04 22:50 243 -0.0
2019-Dec-04 22:40 242 0 gusting 1 -0.0
2019-Dec-04 22:30 242 0 gusting 1 -0.0
2019-Dec-04 22:20 -0.0
2019-Dec-04 22:10 -0.0
2019-Dec-04 22:00 243 -0.0
2019-Dec-04 21:50 242 0.6
2019-Dec-04 21:40 243 0.6
2019-Dec-04 21:30 0.6
2019-Dec-04 21:20 0.6
2019-Dec-04 21:10 0.6
2019-Dec-04 21:00 242 1.1
2019-Dec-04 20:50 242 0 gusting 0 1.1
2019-Dec-04 20:40 242 1.1
2019-Dec-04 20:30 242 0 gusting 1 1.1
2019-Dec-04 20:20 242 1.1
2019-Dec-04 20:10 242 1.7
2019-Dec-04 20:00 242 0 gusting 2 1.7
2019-Dec-04 19:50 242 1.7
2019-Dec-04 19:40 242 1.7
2019-Dec-04 19:30 243 1.7
2019-Dec-04 19:20 243 1.7
2019-Dec-04 19:10 243 1.7
2019-Dec-04 19:00 243 1.7
2019-Dec-04 18:50 242 0 gusting 1 1.7
2019-Dec-04 18:40 214 1 gusting 4 1.7
2019-Dec-04 18:30 203 1.7
2019-Dec-04 18:20 203 1.7
2019-Dec-04 18:10 202 0 gusting 1 1.7
2019-Dec-04 18:00 202 0 gusting 2 1.7
2019-Dec-04 17:50 202 1 gusting 3 1.1
2019-Dec-04 17:40 199 0 gusting 2 1.1
2019-Dec-04 17:30 208 0 gusting 2 1.1
2019-Dec-04 17:20 242 0 gusting 2 0.6
2019-Dec-04 17:10 242 1 gusting 2 0.6
2019-Dec-04 17:00 251 0 gusting 3 0.6
2019-Dec-04 16:50 275 1 gusting 2 0.6
2019-Dec-04 16:40 262 0 gusting 1 0.6
2019-Dec-04 16:30 250 0 gusting 2 0.6
2019-Dec-04 16:20 250 0 gusting 2 -0.0
2019-Dec-04 16:10 250 1 gusting 2 -0.0
2019-Dec-04 16:00 250 0 gusting 1 -0.0
2019-Dec-04 15:50 250 0 gusting 1 -0.0
2019-Dec-04 15:40 252 -0.6
2019-Dec-04 15:30 256 -0.6
2019-Dec-04 15:20 257 -1.1
2019-Dec-04 15:10 256 -1.1
2019-Dec-04 15:00 295 -1.1
2019-Dec-04 14:50 295 -1.7
2019-Dec-04 14:40 295 -1.7
2019-Dec-04 14:30 295 -2.2
2019-Dec-04 14:20 296 -2.8
2019-Dec-04 14:10 296 -2.8
2019-Dec-04 14:00 292 -3.3
2019-Dec-04 13:50 -3.3
2019-Dec-04 13:40 -3.3
2019-Dec-04 13:30 298 -3.9
2019-Dec-04 13:20 -3.9
2019-Dec-04 13:10 -4.4
2019-Dec-04 13:00 -4.4
2019-Dec-04 12:50 298 -4.4
2019-Dec-04 12:40 -5.0
2019-Dec-04 12:30 -5.0
2019-Dec-04 12:20 -5.0
2019-Dec-04 12:10 298 -5.0
2019-Dec-04 12:00 -5.0
2019-Dec-04 11:50 -5.0
2019-Dec-04 11:40 -5.0
2019-Dec-04 11:30 -5.0
2019-Dec-04 11:20 296 -5.0
2019-Dec-04 11:10 321 -5.0
2019-Dec-04 11:00 -5.0
2019-Dec-04 10:50 -5.0
2019-Dec-04 10:40 -5.0
2019-Dec-04 10:30 -5.0
2019-Dec-04 10:20 -5.0
2019-Dec-04 10:10 -5.0
2019-Dec-04 10:00 -5.0
2019-Dec-04 09:50 -5.0
2019-Dec-04 09:40 -5.0
2019-Dec-04 09:30 -5.0
2019-Dec-04 09:20 323 -5.0
2019-Dec-04 09:10 321 -5.0
2019-Dec-04 09:00 330 -5.0
2019-Dec-04 08:50 331 -5.0
2019-Dec-04 08:40 331 -5.0
2019-Dec-04 08:30 -5.0
2019-Dec-04 08:20 -5.0
2019-Dec-04 08:10 -5.0
2019-Dec-04 08:00 -5.0
2019-Dec-04 07:50 -5.0
2019-Dec-04 07:40 -5.0
2019-Dec-04 07:30 -5.0
2019-Dec-04 07:20 -5.0
2019-Dec-04 07:10 -5.0
2019-Dec-04 07:00 -5.0
2019-Dec-04 06:50 331 -5.0
2019-Dec-04 06:40 -4.4
2019-Dec-04 06:30 -4.4
2019-Dec-04 06:20 -4.4
2019-Dec-04 06:10 331 -4.4
2019-Dec-04 06:00 328 -4.4
2019-Dec-04 05:50 328 -4.4
2019-Dec-04 05:40 027 -4.4
2019-Dec-04 05:30 297 -4.4
2019-Dec-04 05:20 316 -4.4
2019-Dec-04 05:10 294 -4.4
2019-Dec-04 05:00 294 -4.4
2019-Dec-04 04:50 -4.4
2019-Dec-04 04:40 -4.4
2019-Dec-04 04:30 -4.4
2019-Dec-04 04:20 294 -4.4
2019-Dec-04 04:10 -4.4
2019-Dec-04 04:00 294 -4.4
2019-Dec-04 03:50 -4.4
2019-Dec-04 03:40 -3.9
2019-Dec-04 03:30 -3.9
2019-Dec-04 03:20 294 -3.9
2019-Dec-04 03:10 294 -3.9
2019-Dec-04 03:00 295 -3.9